Powrót do katalogu

DELTA 1 DEB

AktywnySSO
NORAD 18469·DEBRIS·🇺🇸 United States

Wystrzelony Mar 5, 1978 z Vandenberg Space Force Base

Loading…

Następne Przeloty (najbliższe 24 godziny)

TLE

ŚwieżeSource: Space-Track

Epoka: Sep 13, 2026, 03:13 UTC

1 18469U 78026HF  26256.13409935  .00000247  00000-0  20360-3 0  9993
2 18469  98.9041 202.8469 0045353 316.7675  55.3949 13.97804196117874

Śledź DELTA 1 DEB w czasie rzeczywistym z AllMySat

Download on the App Store